N141FA CYKF-CYKF

Flight info

Callsign N141FA
Flight time N/A
Altitude
Route
Aircraft

Departure

Time 2026-05-03 23:26
Airport Region of Waterloo International Airport (CYKF)

Arrival

Time N/A
Airport Region of Waterloo International Airport (CYKF)
Time Latitude Longitude Altitude Speed Heading
2026-05-03 23:15 43.45384 -80.38165 1025 ft 0 kts 277°
2026-05-03 23:17 43.45384 -80.38174 1025 ft 5 kts 273°
2026-05-03 23:18 43.45400 -80.38242 1025 ft 7 kts 346°
2026-05-03 23:18 43.45451 -80.38209 1026 ft 9 kts 37°
2026-05-03 23:18 43.45495 -80.38168 1027 ft 5 kts
2026-05-03 23:18 43.45522 -80.38209 1027 ft 10 kts 310°
2026-05-03 23:19 43.45586 -80.38313 1027 ft 19 kts 310°
2026-05-03 23:19 43.45680 -80.38476 1027 ft 22 kts 308°
2026-05-03 23:19 43.45751 -80.38578 1027 ft 6 kts 350°
2026-05-03 23:19 43.45782 -80.38526 1027 ft 7 kts 79°
2026-05-03 23:20 43.45784 -80.38519 1027 ft 5 kts 70°
2026-05-03 23:20 43.45844 -80.38327 1027 ft 28 kts 68°
2026-05-03 23:20 43.45929 -80.38081 1030 ft 31 kts 66°
2026-05-03 23:20 43.46028 -80.37790 1034 ft 35 kts 66°
2026-05-03 23:21 43.46126 -80.37489 1040 ft 34 kts 65°
2026-05-03 23:21 43.46228 -80.37206 1044 ft 33 kts 63°
2026-05-03 23:21 43.46322 -80.36925 1047 ft 32 kts 67°
2026-05-03 23:21 43.46410 -80.36650 1049 ft 27 kts 62°
2026-05-03 23:22 43.46509 -80.36562 1050 ft 0 kts 12°
2026-05-03 23:24 43.46581 -80.36599 1050 ft 20 kts 310°
2026-05-03 23:24 43.46574 -80.36668 1050 ft 7 kts 233°
2026-05-03 23:25 43.46554 -80.36718 1050 ft 4 kts 252°
2026-05-03 23:25 43.46533 -80.36786 1050 ft 10 kts 245°
2026-05-03 23:25 43.46430 -80.37101 1047 ft 73 kts 242°
2026-05-03 23:25 43.46162 -80.37775 1401 ft 78 kts 232°
2026-05-03 23:26 43.45869 -80.38316 1680 ft 88 kts 237°
2026-05-03 23:26 43.45583 -80.39007 2025 ft 88 kts 234°
2026-05-03 23:26 43.44926 -80.39017 2060 ft 136 kts 154°
2026-05-03 23:26 43.44211 -80.38354 2114 ft 135 kts 140°
2026-05-03 23:27 43.44272 -80.37151 2094 ft 140 kts 54°
2026-05-03 23:27 43.44756 -80.36069 2056 ft 136 kts 57°
2026-05-03 23:27 43.45211 -80.35026 2036 ft 120 kts 58°
2026-05-03 23:27 43.45605 -80.34117 1926 ft 113 kts 58°
2026-05-03 23:28 43.46013 -80.33209 1825 ft 114 kts 55°
2026-05-03 23:28 43.46408 -80.32341 1750 ft 112 kts 57°
2026-05-03 23:28 43.46880 -80.31541 1685 ft 101 kts 24°
2026-05-03 23:28 43.47490 -80.31577 1573 ft 87 kts 319°
2026-05-03 23:29 43.48032 -80.32117 1651 ft 109 kts 310°
2026-05-03 23:29 43.48118 -80.32891 1803 ft 90 kts 237°
2026-05-03 23:29 43.47765 -80.33474 1698 ft 80 kts 229°
2026-05-03 23:29 43.47482 -80.34012 1605 ft 72 kts 240°
2026-05-03 23:30 43.47261 -80.34567 1451 ft 69 kts 241°
2026-05-03 23:30 43.47084 -80.35130 1344 ft 68 kts 244°
2026-05-03 23:30 43.46916 -80.35662 1279 ft 58 kts 240°
2026-05-03 23:30 43.46760 -80.36103 1203 ft 54 kts 243°
2026-05-03 23:31 43.46602 -80.36575 1156 ft 65 kts 240°
2026-05-03 23:31 43.46440 -80.37086 1443 ft 73 kts 245°
2026-05-03 23:31 43.46225 -80.37739 1637 ft 95 kts 243°